GW5072 Weather Reports


time (UTC)temp
C
wind
direction
speed
KPH
gust
KPH
rain 1hr
cm
rain 24hr
cm
rain mn
cm
humidity
%
barometer
mb
20260901155003 29 319 0.0 1.6 0.00 0.00 0.00 79 1016.7
20260901154505 28 297 0.0 1.6 0.00 0.00 0.00 78 1016.7
20260901154004 28 89 0.0 4.8 0.00 0.00 0.00 78 1016.7
20260901153506 28 319 0.0 4.8 0.00 0.00 0.00 78 1016.6
20260901153006 28 1 0.0 3.2 0.00 0.00 0.00 79 1016.7
20260901152503 28 258 0.0 4.8 0.00 0.00 0.00 79 1016.7
20260901152003 28 330 0.0 4.8 0.00 0.00 0.00 80 1016.7
20260901151505 28 337 0.0 3.2 0.00 0.00 0.00 80 1016.8
20260901151003 28 359 0.0 3.2 0.00 0.00 0.00 81 1016.7
20260901150504 28 307 0.0 3.2 0.00 0.00 0.00 82 1016.8
20260901150007 28 260 0.0 1.6 0.00 0.00 0.00 84 1016.8
20260901145504 27 335 0.0 1.6 0.00 0.00 0.00 86 1016.8
20260901145004 27 322 0.0 1.6 0.00 0.00 0.00 87 1016.9
20260901144515 27 330 0.0 1.6 0.00 0.00 0.00 88 1016.9
20260901144007 27 360 0.0 1.6 0.00 0.00 0.00 88 1016.8
20260901143503 27 320 0.0 1.6 0.00 0.00 0.00 89 1016.9
20260901143005 26 226 0.0 1.6 0.00 0.00 0.00 90 1016.9
20260901142505 26 205 0.0 0.0 0.00 0.00 0.00 91 1016.9
20260901142004 26 205 0.0 0.0 0.00 0.00 0.00 92 1016.9
20260901141506 26 22 0.0 0.0 0.00 0.00 0.00 92 1016.9
20260901141003 26 23 0.0 0.0 0.00 0.00 0.00 93 1016.9
20260901140504 25 23 0.0 0.0 0.00 0.00 0.00 95 1016.9
20260901140005 25 23 0.0 0.0 0.00 0.00 0.00 95 1016.9
20260901135504 25 21 0.0 0.0 0.00 0.00 0.00 96 1016.9
20260901135004 25 41 0.0 1.6 0.00 0.00 0.00 96 1016.9
20260901134509 24 41 0.0 1.6 0.00 0.00 0.00 96 1016.9
20260901134003 24 41 0.0 0.0 0.00 0.00 0.00 96 1016.8
20260901133503 24 41 0.0 0.0 0.00 0.00 0.00 96 1016.7
20260901133011 24 41 0.0 0.0 0.00 0.00 0.00 96 1016.7
20260901132504 24 41 0.0 0.0 0.00 0.00 0.00 96 1016.9
20260901132004 23 41 0.0 0.0 0.00 0.00 0.00 96 1016.8
20260901131510 23 41 0.0 0.0 0.00 0.00 0.00 96 1016.6
20260901131006 23 41 0.0 0.0 0.00 0.00 0.00 96 1016.5
20260901130506 23 41 0.0 0.0 0.00 0.00 0.00 96 1016.5
20260901130011 23 41 0.0 0.0 0.00 0.00 0.00 95 1016.5
20260901125503 23 41 0.0 0.0 0.00 0.00 0.00 95 1016.4
20260901125004 23 41 0.0 0.0 0.00 0.00 0.00 95 1016.4
20260901124512 23 41 0.0 0.0 0.00 0.00 0.00 95 1016.3
20260901124004 23 41 0.0 0.0 0.00 0.00 0.00 95 1016.2
20260901123505 23 41 0.0 0.0 0.00 0.00 0.00 95 1016.2
20260901123014 23 41 0.0 0.0 0.00 0.00 0.00 95 1016.2
20260901122506 23 41 0.0 0.0 0.00 0.00 0.00 95 1016.1
20260901122005 23 41 0.0 0.0 0.00 0.00 0.00 95 1016.0
20260901121507 23 41 0.0 0.0 0.00 0.00 0.00 95 1016.0
20260901121008 23 41 0.0 0.0 0.00 0.00 0.00 95 1015.9
20260901120505 23 41 0.0 0.0 0.00 0.00 0.00 95 1015.9
20260901120012 23 41 0.0 0.0 0.00 0.00 0.00 95 1015.9
20260901115507 23 41 0.0 0.0 0.00 0.00 0.00 95 1015.8
20260901115007 23 41 0.0 0.0 0.00 0.00 0.00 95 1015.8
20260901114512 23 41 0.0 0.0 0.00 0.00 0.00 95 1015.7
20260901114007 23 41 0.0 0.0 0.00 0.00 0.00 94 1015.8
20260901113508 23 41 0.0 0.0 0.00 0.00 0.00 94 1015.8
20260901113012 23 41 0.0 0.0 0.00 0.00 0.00 94 1015.7
20260901112507 23 41 0.0 0.0 0.00 0.00 0.00 94 1015.6
20260901112009 23 41 0.0 0.0 0.00 0.00 0.00 94 1015.7
20260901111515 23 41 0.0 0.0 0.00 0.00 0.00 94 1015.7
20260901111011 23 41 0.0 0.0 0.00 0.00 0.00 94 1015.7
20260901110506 23 41 0.0 0.0 0.00 0.00 0.00 94 1015.6
20260901110028 23 41 0.0 0.0 0.00 0.00 0.00 94 1015.7
20260901105504 23 41 0.0 0.0 0.00 0.00 0.00 94 1015.6
20260901105008 23 41 0.0 0.0 0.00 0.00 0.00 94 1015.6
20260901104516 23 41 0.0 0.0 0.00 0.00 0.00 94 1015.6
20260901104004 23 41 0.0 0.0 0.00 0.00 0.00 94 1015.5
20260901103507 23 41 0.0 0.0 0.00 0.00 0.00 94 1015.5
20260901103016 23 41 0.0 0.0 0.00 0.00 0.00 93 1015.5
20260901102504 23 41 0.0 0.0 0.00 0.00 0.00 93 1015.5
20260901102009 23 41 0.0 0.0 0.00 0.00 0.00 93 1015.5
20260901101522 23 41 0.0 0.0 0.00 0.00 0.00 93 1015.5
20260901101011 23 41 0.0 0.0 0.00 0.00 0.00 93 1015.4
20260901100507 23 41 0.0 0.0 0.00 0.00 0.00 94 1015.3
20260901100004 23 41 0.0 0.0 0.00 0.00 0.00 93 1015.4
20260901095508 23 41 0.0 0.0 0.00 0.00 0.00 93 1015.4
20260901095004 23 41 0.0 0.0 0.00 0.00 0.00 94 1015.4
20260901094503 23 41 0.0 0.0 0.00 0.00 0.00 93 1015.4
20260901094008 23 41 0.0 0.0 0.00 0.00 0.00 93 1015.4
20260901093503 23 41 0.0 0.0 0.00 0.00 0.00 93 1015.4
20260901093019 23 41 0.0 0.0 0.00 0.00 0.00 93 1015.4
20260901092509 23 41 0.0 0.0 0.00 0.00 0.00 93 1015.5
20260901092003 23 41 0.0 0.0 0.00 0.00 0.00 92 1015.3
20260901091518 23 41 0.0 0.0 0.00 0.00 0.00 92 1015.4
20260901091004 23 41 0.0 0.0 0.00 0.00 0.00 92 1015.5
20260901090511 24 41 0.0 0.0 0.00 0.00 0.00 92 1015.5
20260901090020 24 41 0.0 0.0 0.00 0.00 0.00 92 1015.5
20260901085504 24 41 0.0 0.0 0.00 0.00 0.00 92 1015.6
20260901085012 24 41 0.0 0.0 0.00 0.00 0.00 92 1015.6
20260901084518 24 41 0.0 0.0 0.00 0.00 0.00 92 1015.7
20260901084003 24 41 0.0 0.0 0.00 0.00 0.00 92 1015.7
20260901083510 24 41 0.0 0.0 0.00 0.00 0.00 92 1015.6
20260901083015 24 41 0.0 0.0 0.00 0.00 0.00 92 1015.6
20260901082512 24 41 0.0 0.0 0.00 0.00 0.00 92 1015.8
20260901082011 24 41 0.0 0.0 0.00 0.00 0.00 92 1015.8
20260901081511 24 41 0.0 0.0 0.00 0.00 0.00 92 1015.6
20260901081011 24 41 0.0 0.0 0.00 0.00 0.00 91 1015.7
20260901080507 24 41 0.0 0.0 0.00 0.00 0.00 91 1015.8
20260901080007 24 41 0.0 0.0 0.00 0.00 0.00 91 1015.9
20260901075512 24 41 0.0 0.0 0.00 0.00 0.00 91 1015.8
20260901075007 24 41 0.0 0.0 0.00 0.00 0.00 91 1015.8
20260901074526 24 41 0.0 0.0 0.00 0.00 0.00 91 1015.9
20260901074011 24 41 0.0 0.0 0.00 0.00 0.00 90 1015.9
20260901073504 25 41 0.0 0.0 0.00 0.00 0.00 90 1015.8
20260901073026 25 41 0.0 0.0 0.00 0.00 0.00 90 1015.8
20260901072509 25 41 0.0 0.0 0.00 0.00 0.00 90 1015.9
20260901072015 25 41 0.0 0.0 0.00 0.00 0.00 90 1015.9
20260901071528 25 41 0.0 0.0 0.00 0.00 0.00 90 1015.9
20260901071007 25 41 0.0 0.0 0.00 0.00 0.00 90 1015.9
20260901070511 25 41 0.0 0.0 0.00 0.00 0.00 90 1015.8
20260901070023 25 41 0.0 0.0 0.00 0.00 0.00 89 1015.7
20260901065504 25 41 0.0 0.0 0.00 0.00 0.00 89 1015.8
20260901065019 25 41 0.0 0.0 0.00 0.00 0.00 89 1015.8
20260901064535 25 41 0.0 0.0 0.00 0.00 0.00 89 1015.8
20260901064014 25 41 0.0 0.0 0.00 0.00 0.00 89 1015.8
20260901063512 25 41 0.0 0.0 0.00 0.00 0.00 89 1015.9
20260901063025 25 41 0.0 0.0 0.00 0.00 0.00 88 1015.9
20260901062512 25 41 0.0 0.0 0.00 0.00 0.00 88 1015.9
20260901062010 25 41 0.0 0.0 0.00 0.00 0.00 88 1015.9
20260901061510 25 41 0.0 0.0 0.00 0.00 0.00 88 1016.0
20260901061017 25 41 0.0 0.0 0.00 0.00 0.00 88 1016.0
20260901060509 25 41 0.0 0.0 0.00 0.00 0.00 88 1016.0
20260901060027 25 41 0.0 0.0 0.00 0.00 0.00 88 1016.1
20260901055512 25 41 0.0 0.0 0.00 0.00 0.00 88 1016.0
20260901055008 25 41 0.0 0.0 0.00 0.00 0.00 87 1016.0
20260901054528 25 41 0.0 0.0 0.00 0.00 0.00 87 1016.0
20260901054016 25 41 0.0 0.0 0.00 0.00 0.00 87 1016.0
20260901053504 26 41 0.0 0.0 0.00 0.00 0.00 87 1016.0
20260901053029 26 41 0.0 0.0 0.00 0.00 0.00 86 1016.0
20260901052509 26 41 0.0 0.0 0.00 0.00 0.00 86 1016.0
20260901052012 26 41 0.0 0.0 0.00 0.00 0.00 86 1015.9
20260901051529 26 41 0.0 0.0 0.00 0.00 0.00 85 1015.9
20260901051009 26 41 0.0 0.0 0.00 0.00 0.00 86 1015.9
20260901050519 26 41 0.0 0.0 0.00 0.00 0.00 86 1015.8
20260901050023 26 41 0.0 0.0 0.00 0.00 0.00 86 1015.8
20260901045517 26 41 0.0 0.0 0.00 0.00 0.00 86 1015.7
20260901045014 26 41 0.0 0.0 0.00 0.00 0.00 86 1015.6
20260901044520 26 41 0.0 0.0 0.00 0.00 0.00 86 1015.6
20260901044013 26 41 0.0 0.0 0.00 0.00 0.00 86 1015.6
20260901043514 26 41 0.0 0.0 0.00 0.00 0.00 86 1015.5
20260901043017 26 41 0.0 0.0 0.00 0.00 0.00 86 1015.6
20260901042516 26 41 0.0 0.0 0.00 0.00 0.00 86 1015.5
20260901042011 26 41 0.0 0.0 0.00 0.00 0.00 86 1015.6
20260901041527 26 41 0.0 0.0 0.00 0.00 0.00 86 1015.5
20260901041014 26 41 0.0 0.0 0.00 0.00 0.00 85 1015.5
20260901040511 26 41 0.0 0.0 0.00 0.00 0.00 85 1015.5
20260901040035 26 41 0.0 0.0 0.00 0.00 0.00 85 1015.4
20260901035514 26 41 0.0 0.0 0.00 0.00 0.00 85 1015.5
20260901035007 26 41 0.0 0.0 0.00 0.00 0.00 85 1015.4
20260901034530 26 41 0.0 0.0 0.00 0.00 0.00 84 1015.2
20260901034011 26 41 0.0 0.0 0.00 0.00 0.00 84 1015.1
20260901033514 26 41 0.0 0.0 0.00 0.00 0.00 84 1014.9
20260901033027 26 41 0.0 0.0 0.00 0.00 0.00 84 1015.0
20260901032513 26 41 0.0 0.0 0.00 0.00 0.00 84 1014.9
20260901032015 26 41 0.0 0.0 0.00 0.00 0.00 84 1014.9
20260901031507 26 41 0.0 0.0 0.00 0.00 0.00 83 1014.8
20260901031009 26 41 0.0 0.0 0.00 0.00 0.00 83 1014.7
20260901030505 26 41 0.0 0.0 0.00 0.00 0.00 83 1014.7
20260901030026 26 41 0.0 0.0 0.00 0.00 0.00 82 1014.7
20260901025507 26 41 0.0 0.0 0.00 0.00 0.00 82 1014.6
20260901025003 26 41 0.0 0.0 0.00 0.00 0.00 82 1014.6
20260901024528 26 41 0.0 0.0 0.00 0.00 0.00 82 1014.6
20260901024006 26 41 0.0 0.0 0.00 0.00 0.00 81 1014.6
20260901023503 27 41 0.0 0.0 0.00 0.00 0.00 80 1014.5
20260901023022 27 41 0.0 0.0 0.00 0.00 0.00 80 1014.5
20260901022505 27 41 0.0 0.0 0.00 0.00 0.00 80 1014.4
20260901022012 27 41 0.0 0.0 0.00 0.00 0.00 79 1014.3
20260901021516 27 41 0.0 0.0 0.00 0.00 0.00 79 1014.3
20260901021004 27 41 0.0 0.0 0.00 0.00 0.00 79 1014.3
20260901020510 27 41 0.0 0.0 0.00 0.00 0.00 78 1014.3
20260901020012 27 41 0.0 0.0 0.00 0.00 0.00 77 1014.2
20260901015502 27 41 0.0 0.0 0.00 0.00 0.00 77 1014.1
20260901015007 28 41 0.0 0.0 0.00 0.00 0.00 77 1014.1
20260901014509 28 41 0.0 0.0 0.00 0.00 0.00 76 1014.1
20260901014012 28 41 0.0 0.0 0.00 0.00 0.00 75 1014.1
20260901013508 28 41 0.0 0.0 0.00 0.00 0.00 75 1014.0
20260901013007 28 41 0.0 0.0 0.00 0.00 0.00 74 1013.9
20260901012516 28 41 0.0 0.0 0.00 0.00 0.00 74 1014.0
20260901012005 28 41 0.0 0.0 0.00 0.00 0.00 73 1014.0
20260901011506 29 41 0.0 0.0 0.00 0.00 0.00 72 1013.9
20260901011008 29 41 0.0 0.0 0.00 0.00 0.00 72 1013.9
20260901010503 29 41 0.0 0.0 0.00 0.00 0.00 71 1013.9
20260901010028 30 41 0.0 0.0 0.00 0.00 0.00 70 1013.8
20260901005508 30 41 0.0 0.0 0.00 0.00 0.00 70 1013.8
20260901005003 30 41 0.0 0.0 0.00 0.00 0.00 70 1013.7
20260901004533 30 41 0.0 0.0 0.00 0.00 0.00 69 1013.8
20260901004003 30 41 0.0 0.0 0.00 0.00 0.00 69 1013.8
20260901003515 30 41 0.0 0.0 0.00 0.00 0.00 68 1013.8
20260901003025 30 41 0.0 0.0 0.00 0.00 0.00 68 1013.9
20260901002504 30 41 0.0 0.0 0.00 0.00 0.00 67 1014.0
20260901002013 31 41 0.0 0.0 0.00 0.00 0.00 67 1013.9
20260901001523 31 41 0.0 0.0 0.00 0.00 0.00 67 1014.0
20260901001003 31 41 0.0 0.0 0.00 0.00 0.00 65 1014.0
20260901000513 31 41 0.0 0.0 0.00 0.00 0.00 65 1014.0
20260901000016 31 41 0.0 1.6 0.00 0.00 0.00 64 1014.1
20260831235515 31 42 0.0 1.6 0.00 0.00 0.00 63 1014.2
20260831235010 32 41 0.0 0.0 0.00 0.00 0.00 63 1014.3
20260831234511 32 41 0.0 1.6 0.00 0.00 0.00 61 1014.3
20260831234012 32 41 0.0 1.6 0.00 0.00 0.00 62 1014.4
20260831233510 32 33 0.0 1.6 0.00 0.00 0.00 61 1014.3
20260831233007 32 33 0.0 1.6 0.00 0.00 0.00 60 1014.3
20260831232512 33 50 0.0 1.6 0.00 0.00 0.00 57 1014.2
20260831232007 33 69 0.0 1.6 0.00 0.00 0.00 57 1014.2
20260831231527 33 77 0.0 1.6 0.00 0.00 0.00 57 1014.1
20260831231010 33 96 0.0 3.2 0.00 0.00 0.00 55 1014.1
20260831230504 33 94 0.0 3.2 0.00 0.00 0.00 57 1013.9
20260831230036 33 75 0.0 1.6 0.00 0.00 0.00 57 1013.8
20260831225508 34 94 0.0 3.2 0.00 0.00 0.00 57 1013.9
20260831225015 33 233 0.0 3.2 0.00 0.00 0.00 57 1014.0
20260831224523 33 100 0.0 3.2 0.00 0.00 0.00 58 1013.8
20260831224005 33 122 0.0 3.2 0.00 0.00 0.00 58 1014.0
20260831223515 33 138 0.0 3.2 0.00 0.00 0.00 58 1014.2
20260831223022 33 111 0.0 3.2 0.00 0.00 0.00 58 1014.1
20260831222506 33 134 0.0 1.6 0.00 0.00 0.00 58 1014.0
20260831222015 33 219 0.0 3.2 0.00 0.00 0.00 58 1014.0
20260831221527 33 190 0.0 6.4 0.00 0.00 0.00 58 1014.1
20260831221016 33 213 0.0 6.4 0.00 0.00 0.00 57 1014.1
20260831220511 34 98 0.0 3.2 0.00 0.00 0.00 57 1014.0
20260831220015 34 155 0.0 3.2 0.00 0.00 0.00 56 1014.0
20260831215516 34 295 0.0 3.2 0.00 0.00 0.00 55 1014.1
20260831215013 35 107 0.0 3.2 0.00 0.00 0.00 53 1014.0
20260831214532 35 223 0.0 1.6 0.00 0.00 0.00 50 1014.0
20260831214013 35 170 0.0 1.6 0.00 0.00 0.00 48 1014.1
20260831213507 36 121 0.0 1.6 0.00 0.00 0.00 47 1014.2
20260831213030 36 157 0.0 1.6 0.00 0.00 0.00 46 1014.1
20260831212513 36 63 0.0 3.2 0.00 0.00 0.00 45 1014.0
20260831212007 37 79 0.0 3.2 0.00 0.00 0.00 43 1014.1
20260831211504 37 178 0.0 3.2 0.00 0.00 0.00 43 1014.2
20260831211003 38 349 0.0 1.6 0.00 0.00 0.00 42 1014.0
20260831210504 38 354 0.0 3.2 0.00 0.00 0.00 42 1014.1
20260831210005 38 52 0.0 3.2 0.00 0.00 0.00 44 1014.3
20260831205508 37 205 0.0 3.2 0.00 0.00 0.00 46 1014.3
20260831205004 36 129 0.0 1.6 0.00 0.00 0.00 46 1014.3
20260831204504 36 75 0.0 1.6 0.00 0.00 0.00 47 1014.4
20260831204009 36 77 0.0 1.6 0.00 0.00 0.00 48 1014.6
20260831203504 36 65 0.0 4.8 0.00 0.00 0.00 47 1014.7
20260831203003 36 120 0.0 4.8 0.00 0.00 0.00 45 1014.6
20260831202505 36 78 0.0 4.8 0.00 0.00 0.00 46 1014.6
20260831202004 37 44 0.0 3.2 0.00 0.00 0.00 44 1014.8
20260831201527 37 126 0.0 4.8 0.00 0.00 0.00 45 1014.9
20260831201003 37 115 0.0 4.8 0.00 0.00 0.00 47 1014.9
20260831200502 37 269 0.0 1.6 0.00 0.00 0.00 46 1015.0
20260831200035 36 319 0.0 4.8 0.00 0.00 0.00 47 1015.0
20260831195502 37 47 0.0 4.8 0.00 0.00 0.00 46 1015.2
20260831195002 37 179 0.0 4.8 0.00 0.00 0.00 46 1015.3
20260831194513 37 224 0.0 8.0 0.00 0.00 0.00 47 1015.3
20260831194007 37 88 1.6 9.7 0.00 0.00 0.00 46 1015.3
20260831193510 37 236 3.2 9.7 0.00 0.00 0.00 46 1015.4
20260831193010 37 155 0.0 4.8 0.00 0.00 0.00 47 1015.5
20260831192507 37 40 0.0 4.8 0.00 0.00 0.00 46 1015.5
20260831192010 36 213 0.0 4.8 0.00 0.00 0.00 49 1015.6
20260831191504 36 203 1.6 4.8 0.00 0.00 0.00 50 1015.8
20260831191012 35 98 0.0 1.6 0.00 0.00 0.00 51 1015.9
20260831190506 35 245 0.0 3.2 0.00 0.00 0.00 52 1015.9
20260831190006 35 254 0.0 3.2 0.00 0.00 0.00 52 1016.0
20260831185510 35 73 0.0 3.2 0.00 0.00 0.00 52 1016.1
20260831185005 35 51 0.0 3.2 0.00 0.00 0.00 52 1016.2
20260831184511 35 225 0.0 3.2 0.00 0.00 0.00 52 1016.2
20260831184007 35 54 0.0 3.2 0.00 0.00 0.00 53 1016.3
20260831183502 35 88 0.0 3.2 0.00 0.00 0.00 52 1016.4
20260831183035 35 240 0.0 3.2 0.00 0.00 0.00 53 1016.4
20260831182510 35 206 0.0 1.6 0.00 0.00 0.00 50 1016.4
20260831182003 36 300 0.0 6.4 0.00 0.00 0.00 49 1016.6
20260831181520 36 200 0.0 6.4 0.00 0.00 0.00 49 1016.5
20260831181003 36 217 0.0 6.4 0.00 0.00 0.00 50 1016.6
20260831180503 35 238 0.0 3.2 0.00 0.00 0.00 50 1016.7
20260831180019 35 137 0.0 3.2 0.00 0.00 0.00 52 1016.8
20260831175505 34 113 0.0 1.6 0.00 0.00 0.00 56 1016.7
20260831175013 34 209 0.0 1.6 0.00 0.00 0.00 55 1016.8
20260831174516 35 216 0.0 3.2 0.00 0.00 0.00 52 1017.0
20260831174006 36 323 0.0 3.2 0.00 0.00 0.00 52 1017.0
20260831173510 35 237 0.0 3.2 0.00 0.00 0.00 53 1017.1
20260831173007 35 238 0.0 1.6 0.00 0.00 0.00 55 1017.2
20260831172514 34 210 0.0 3.2 0.00 0.00 0.00 57 1017.2
20260831172008 33 217 0.0 3.2 0.00 0.00 0.00 58 1017.2
20260831171508 33 20 0.0 1.6 0.00 0.00 0.00 58 1017.3
20260831171011 33 200 0.0 1.6 0.00 0.00 0.00 60 1017.3
20260831170508 32 217 0.0 1.6 0.00 0.00 0.00 62 1017.3
20260831170006 32 212 0.0 1.6 0.00 0.00 0.00 64 1017.4
20260831165510 31 208 0.0 1.6 0.00 0.00 0.00 64 1017.5
20260831165005 31 274 0.0 1.6 0.00 0.00 0.00 65 1017.5
20260831164530 31 253 0.0 1.6 0.00 0.00 0.00 65 1017.4
20260831164011 31 252 0.0 1.6 0.00 0.00 0.00 65 1017.5
20260831163503 31 216 0.0 1.6 0.00 0.00 0.00 67 1017.5
20260831163038 31 215 0.0 1.6 0.00 0.00 0.00 67 1017.6
20260831162507 31 212 0.0 1.6 0.00 0.00 0.00 66 1017.6
20260831162002 31 219 0.0 1.6 0.00 0.00 0.00 65 1017.5
20260831161524 31 205 0.0 3.2 0.00 0.00 0.00 66 1017.5
20260831161005 31 86 0.0 3.2 0.00 0.00 0.00 67 1017.7
20260831160514 31 77 0.0 3.2 0.00 0.00 0.00 66 1017.6
20260831160034 30 246 0.0 3.2 0.00 0.00 0.00 67 1017.6
20260831155506 30 213 0.0 3.2 0.00 0.00 0.00 67 1017.6